Time,TemperatureF,DewpointF,PressureIn,WindDirection,WindDirectionDegrees,WindSpeedMPH,WindSpeedGustMPH,Humidity,HourlyPrecipIn,Conditions,Clouds,dailyrainin,SolarRadiationWatts/m^2,SoftwareType,DateUTC
2013-06-02 00:05:00,62.3,57.4,29.78,SSW,202,2.0,3.0,84,0.00,,FEW031,0.00,0.00,VWS V14.01,2013-06-02 05:05:00,
2013-06-02 00:10:00,62.3,57.4,29.78,South,187,1.0,3.0,84,0.00,,FEW031,0.00,0.00,VWS V14.01,2013-06-02 05:10:00,
2013-06-02 00:15:00,62.1,57.5,29.78,SSW,208,3.0,5.0,85,0.00,,FEW031,0.00,0.00,VWS V14.01,2013-06-02 05:15:00,
2013-06-02 00:21:00,62.1,57.5,29.78,SSW,192,1.0,5.0,85,0.00,,FEW031,0.00,0.00,VWS V14.01,2013-06-02 05:21:00,
2013-06-02 00:26:00,62.1,57.5,29.78,SSW,202,0.0,3.0,85,0.00,,FEW031,0.00,0.00,VWS V14.01,2013-06-02 05:26:00,
2013-06-02 00:31:00,62.0,57.5,29.79,SSW,208,3.0,3.0,85,0.00,,FEW031,0.00,0.00,VWS V14.01,2013-06-02 05:31:00,
2013-06-02 00:36:00,62.0,57.5,29.79,SSW,205,3.0,4.0,85,0.00,,FEW031,0.00,0.00,VWS V14.01,2013-06-02 05:36:00,
2013-06-02 00:42:00,61.8,57.2,29.78,SSW,213,2.0,7.0,85,0.00,,FEW031,0.00,0.00,VWS V14.01,2013-06-02 05:42:00,
2013-06-02 00:47:00,61.8,57.6,29.78,SSW,213,0.0,3.0,86,0.00,,FEW031,0.00,0.00,VWS V14.01,2013-06-02 05:47:00,
2013-06-02 00:52:00,61.6,57.4,29.78,SSW,211,1.0,5.0,86,0.00,,FEW031,0.00,0.00,VWS V14.01,2013-06-02 05:52:00,
2013-06-02 00:57:00,61.6,57.7,29.78,SW,232,7.0,7.0,87,0.00,,FEW031,0.00,0.00,VWS V14.01,2013-06-02 05:57:00,
2013-06-02 01:03:00,61.6,57.7,29.77,SSE,167,1.0,4.0,87,0.00,,FEW031,0.00,0.00,VWS V14.01,2013-06-02 06:03:00,
2013-06-02 01:08:00,61.5,57.6,29.78,SW,224,6.0,8.0,87,0.00,,FEW031,0.00,0.00,VWS V14.01,2013-06-02 06:08:00,
2013-06-02 01:14:00,61.5,57.9,29.78,SW,221,3.0,5.0,88,0.00,,FEW031,0.00,0.00,VWS V14.01,2013-06-02 06:14:00,
2013-06-02 01:19:00,61.3,57.7,29.78,SSW,197,1.0,4.0,88,0.00,,FEW031,0.00,0.00,VWS V14.01,2013-06-02 06:19:00,
2013-06-02 01:24:00,61.2,57.6,29.78,SW,231,2.0,7.0,88,0.00,,FEW031,0.00,0.00,VWS V14.01,2013-06-02 06:24:00,
2013-06-02 01:29:00,61.0,57.7,29.78,NW,306,2.0,4.0,89,0.00,,FEW031,0.00,0.00,VWS V14.01,2013-06-02 06:29:00,
2013-06-02 01:35:00,60.9,57.6,29.78,SSW,205,3.0,5.0,89,0.00,,FEW031,0.00,0.00,VWS V14.01,2013-06-02 06:35:00,
2013-06-02 01:40:00,60.7,57.8,29.78,SW,233,2.0,9.0,90,0.00,,FEW031,0.00,0.00,VWS V14.01,2013-06-02 06:40:00,
2013-06-02 01:45:00,60.5,57.6,29.78,WSW,254,2.0,4.0,90,0.00,,FEW031,0.00,0.00,VWS V14.01,2013-06-02 06:45:00,
2013-06-02 01:50:00,60.4,57.5,29.78,SSE,163,6.0,8.0,90,0.00,,FEW031,0.00,0.00,VWS V14.01,2013-06-02 06:50:00,
2013-06-02 01:55:00,60.4,57.5,29.78,SSW,208,2.0,3.0,90,0.00,,FEW031,0.00,0.00,VWS V14.01,2013-06-02 06:55:00,
2013-06-02 02:00:00,60.2,57.3,29.78,SSW,202,3.0,6.0,90,0.00,,CLR,0.00,0.00,VWS V14.01,2013-06-02 07:00:00,
2013-06-02 02:06:00,60.1,57.2,29.79,SW,219,4.0,8.0,90,0.00,,CLR,0.00,0.00,VWS V14.01,2013-06-02 07:06:00,
2013-06-02 02:11:00,59.9,57.0,29.78,South,176,4.0,6.0,90,0.00,,CLR,0.00,0.00,VWS V14.01,2013-06-02 07:11:00,
2013-06-02 02:16:00,59.9,57.0,29.78,South,184,2.0,6.0,90,0.00,,CLR,0.00,0.00,VWS V14.01,2013-06-02 07:16:00,
2013-06-02 02:21:00,59.8,56.9,29.78,SW,222,3.0,3.0,90,0.00,,CLR,0.00,0.00,VWS V14.01,2013-06-02 07:21:00,
2013-06-02 02:27:00,59.6,56.7,29.77,SW,223,3.0,5.0,90,0.00,,CLR,0.00,0.00,VWS V14.01,2013-06-02 07:27:00,
2013-06-02 02:32:00,59.6,57.0,29.77,SW,216,1.0,1.0,91,0.00,,CLR,0.00,0.00,VWS V14.01,2013-06-02 07:32:00,
2013-06-02 02:37:00,59.5,56.9,29.77,SW,214,0.0,3.0,91,0.00,,CLR,0.00,0.00,VWS V14.01,2013-06-02 07:37:00,
2013-06-02 02:42:00,59.5,56.9,29.78,SSW,202,1.0,5.0,91,0.00,,CLR,0.00,0.00,VWS V14.01,2013-06-02 07:42:00,
2013-06-02 02:47:00,59.3,56.7,29.78,SSW,200,2.0,5.0,91,0.00,,CLR,0.00,0.00,VWS V14.01,2013-06-02 07:47:00,
2013-06-02 02:52:00,59.3,56.7,29.78,SSW,192,3.0,6.0,91,0.00,,CLR,0.00,0.00,VWS V14.01,2013-06-02 07:52:00,
2013-06-02 02:57:00,59.3,57.0,29.78,South,183,0.0,2.0,92,0.00,,CLR,0.00,0.00,VWS V14.01,2013-06-02 07:57:00,
2013-06-02 03:02:00,59.2,56.9,29.78,SW,214,3.0,5.0,92,0.00,,CLR,0.00,0.00,VWS V14.01,2013-06-02 08:02:00,
2013-06-02 03:08:00,59.2,56.9,29.79,SSW,198,1.0,6.0,92,0.00,,CLR,0.00,0.00,VWS V14.01,2013-06-02 08:08:00,
2013-06-02 03:13:00,59.2,56.9,29.79,WNW,283,4.0,7.0,92,0.00,,CLR,0.00,0.00,VWS V14.01,2013-06-02 08:13:00,
2013-06-02 03:18:00,59.2,56.9,29.79,SW,220,2.0,4.0,92,0.00,,CLR,0.00,0.00,VWS V14.01,2013-06-02 08:18:00,
2013-06-02 03:23:00,59.3,57.0,29.79,SW,215,2.0,5.0,92,0.00,,CLR,0.00,0.00,VWS V14.01,2013-06-02 08:23:00,
2013-06-02 03:28:00,59.3,57.0,29.80,SSW,208,4.0,5.0,92,0.00,,CLR,0.00,0.00,VWS V14.01,2013-06-02 08:28:00,
2013-06-02 03:33:00,59.3,57.0,29.80,SSW,210,3.0,9.0,92,0.00,,CLR,0.00,0.00,VWS V14.01,2013-06-02 08:33:00,
2013-06-02 03:38:00,59.3,57.0,29.80,SW,215,3.0,7.0,92,0.00,,CLR,0.00,0.00,VWS V14.01,2013-06-02 08:38:00,
2013-06-02 03:43:00,59.3,57.0,29.80,SSW,209,5.0,7.0,92,0.00,,CLR,0.00,0.00,VWS V14.01,2013-06-02 08:43:00,
2013-06-02 03:48:00,59.3,57.0,29.81,SW,216,2.0,6.0,92,0.00,,CLR,0.00,0.00,VWS V14.01,2013-06-02 08:48:00,
2013-06-02 03:53:00,59.3,57.0,29.81,SW,218,1.0,2.0,92,0.00,,CLR,0.00,0.00,VWS V14.01,2013-06-02 08:53:00,
2013-06-02 03:59:00,59.3,57.0,29.81,SW,218,5.0,8.0,92,0.00,,CLR,0.00,0.00,VWS V14.01,2013-06-02 08:59:00,
2013-06-02 04:04:00,59.2,56.9,29.81,SSW,205,4.0,6.0,92,0.00,,BKN013,0.00,0.00,VWS V14.01,2013-06-02 09:04:00,
2013-06-02 04:09:00,59.2,56.9,29.81,SW,221,7.0,7.0,92,0.00,,BKN013,0.00,0.00,VWS V14.01,2013-06-02 09:09:00,
2013-06-02 04:14:00,59.3,57.3,29.81,South,189,3.0,6.0,93,0.00,,BKN013,0.00,0.00,VWS V14.01,2013-06-02 09:14:00,
2013-06-02 04:19:00,59.3,57.3,29.81,South,186,4.0,8.0,93,0.00,,BKN013,0.00,0.00,VWS V14.01,2013-06-02 09:19:00,
2013-06-02 04:24:00,59.3,57.3,29.81,South,190,4.0,6.0,93,0.00,,BKN013,0.00,0.00,VWS V14.01,2013-06-02 09:24:00,
2013-06-02 04:29:00,59.3,57.3,29.81,SW,223,0.0,5.0,93,0.00,,BKN013,0.00,0.00,VWS V14.01,2013-06-02 09:29:00,
2013-06-02 04:35:00,59.3,57.3,29.82,SSW,194,0.0,3.0,93,0.00,,BKN013,0.00,0.00,VWS V14.01,2013-06-02 09:35:00,
2013-06-02 04:40:00,59.3,57.3,29.82,SSW,209,3.0,4.0,93,0.00,,BKN013,0.00,0.00,VWS V14.01,2013-06-02 09:40:00,
2013-06-02 04:45:00,59.3,57.3,29.82,SSW,208,2.0,7.0,93,0.00,,BKN013,0.00,0.00,VWS V14.01,2013-06-02 09:45:00,
2013-06-02 04:50:00,59.5,57.5,29.82,SSW,204,0.0,0.0,93,0.00,,BKN013,0.00,0.00,VWS V14.01,2013-06-02 09:50:00,
2013-06-02 04:55:00,59.5,57.5,29.82,SW,236,4.0,6.0,93,0.00,,BKN013,0.00,0.00,VWS V14.01,2013-06-02 09:55:00,
2013-06-02 05:00:00,59.5,57.5,29.83,SSE,162,2.0,8.0,93,0.00,,OVC017,0.00,0.00,VWS V14.01,2013-06-02 10:00:00,
2013-06-02 05:05:00,59.5,57.5,29.83,SSW,192,2.0,6.0,93,0.00,,OVC017,0.00,0.00,VWS V14.01,2013-06-02 10:05:00,
2013-06-02 05:10:00,59.5,57.5,29.83,SSW,210,3.0,7.0,93,0.00,,OVC017,0.00,0.00,VWS V14.01,2013-06-02 10:10:00,
2013-06-02 05:15:00,59.5,57.5,29.83,West,263,0.0,4.0,93,0.00,,OVC017,0.00,0.00,VWS V14.01,2013-06-02 10:15:00,
2013-06-02 05:21:00,59.5,57.5,29.83,WSW,251,10.0,11.0,93,0.00,,OVC017,0.00,0.00,VWS V14.01,2013-06-02 10:21:00,
2013-06-02 05:26:00,59.5,57.5,29.83,SW,231,3.0,4.0,93,0.00,,OVC017,0.00,0.00,VWS V14.01,2013-06-02 10:26:00,
2013-06-02 05:31:00,59.3,57.6,29.83,WSW,248,2.0,9.0,94,0.00,,OVC017,0.00,0.00,VWS V14.01,2013-06-02 10:31:00,
2013-06-02 05:36:00,59.5,57.8,29.83,SSW,206,4.0,7.0,94,0.00,,OVC017,0.00,5.00,VWS V14.01,2013-06-02 10:36:00,
2013-06-02 05:41:00,59.5,57.8,29.83,WSW,239,4.0,6.0,94,0.00,,OVC017,0.00,5.00,VWS V14.01,2013-06-02 10:41:00,
2013-06-02 05:47:00,59.5,57.8,29.83,WSW,238,4.0,5.0,94,0.00,,OVC017,0.00,9.00,VWS V14.01,2013-06-02 10:47:00,
2013-06-02 05:52:00,59.6,57.9,29.84,SW,230,0.0,3.0,94,0.00,,OVC017,0.00,12.00,VWS V14.01,2013-06-02 10:52:00,
2013-06-02 05:57:00,59.6,57.9,29.84,WSW,242,1.0,7.0,94,0.00,,OVC017,0.00,12.00,VWS V14.01,2013-06-02 10:57:00,
2013-06-02 06:02:00,59.8,58.1,29.83,WSW,254,4.0,4.0,94,0.00,,OVC019,0.00,14.00,VWS V14.01,2013-06-02 11:02:00,
2013-06-02 06:08:00,59.9,58.2,29.83,West,273,6.0,8.0,94,0.00,,OVC019,0.00,14.00,VWS V14.01,2013-06-02 11:08:00,
2013-06-02 06:13:00,59.9,58.2,29.83,West,268,4.0,8.0,94,0.00,,OVC019,0.00,18.00,VWS V14.01,2013-06-02 11:13:00,
2013-06-02 06:18:00,60.1,58.4,29.83,West,267,0.0,6.0,94,0.00,,OVC019,0.00,21.00,VWS V14.01,2013-06-02 11:18:00,
2013-06-02 06:24:00,60.2,58.5,29.83,WNW,293,3.0,7.0,94,0.00,,OVC019,0.00,26.00,VWS V14.01,2013-06-02 11:24:00,
2013-06-02 06:29:00,60.2,58.5,29.83,WSW,244,1.0,5.0,94,0.00,,OVC019,0.00,26.00,VWS V14.01,2013-06-02 11:29:00,
2013-06-02 06:34:00,60.2,58.5,29.83,West,273,3.0,4.0,94,0.00,,OVC019,0.00,30.00,VWS V14.01,2013-06-02 11:34:00,
2013-06-02 06:39:00,60.4,58.4,29.84,West,281,2.0,3.0,93,0.00,,OVC019,0.00,35.00,VWS V14.01,2013-06-02 11:39:00,
2013-06-02 06:44:00,60.4,58.4,29.84,WSW,250,5.0,6.0,93,0.00,,OVC019,0.00,42.00,VWS V14.01,2013-06-02 11:44:00,
2013-06-02 06:49:00,60.5,58.5,29.84,WSW,252,2.0,7.0,93,0.00,,OVC019,0.00,39.00,VWS V14.01,2013-06-02 11:49:00,
2013-06-02 06:54:00,60.5,58.5,29.84,WNW,295,1.0,2.0,93,0.00,,OVC019,0.00,40.00,VWS V14.01,2013-06-02 11:54:00,
2013-06-02 06:59:00,60.7,58.7,29.84,West,263,1.0,3.0,93,0.00,,OVC019,0.00,32.00,VWS V14.01,2013-06-02 11:59:00,
2013-06-02 07:04:00,60.7,58.7,29.85,West,264,4.0,5.0,93,0.00,,OVC019,0.00,35.00,VWS V14.01,2013-06-02 12:04:00,
2013-06-02 07:09:00,60.7,58.4,29.85,West,259,4.0,6.0,92,0.00,,OVC019,0.00,30.00,VWS V14.01,2013-06-02 12:09:00,
2013-06-02 07:15:00,60.9,58.6,29.86,WNW,294,1.0,4.0,92,0.00,,OVC019,0.00,33.00,VWS V14.01,2013-06-02 12:15:00,
2013-06-02 07:20:00,60.9,58.6,29.86,WNW,288,1.0,2.0,92,0.00,,OVC019,0.00,40.00,VWS V14.01,2013-06-02 12:20:00,
2013-06-02 07:25:00,60.9,58.6,29.86,NW,317,1.0,3.0,92,0.00,,OVC019,0.00,49.00,VWS V14.01,2013-06-02 12:25:00,
2013-06-02 07:30:00,60.7,58.1,29.87,West,266,6.0,7.0,91,0.00,,OVC019,0.00,79.00,VWS V14.01,2013-06-02 12:30:00,
2013-06-02 07:35:00,60.9,58.0,29.87,West,278,0.0,5.0,90,0.00,,OVC019,0.00,62.00,VWS V14.01,2013-06-02 12:35:00,
2013-06-02 07:41:00,60.9,57.6,29.87,NW,320,4.0,4.0,89,0.00,,OVC019,0.00,121.00,VWS V14.01,2013-06-02 12:41:00,
2013-06-02 07:46:00,60.9,57.3,29.87,West,261,10.0,10.0,88,0.00,,OVC019,0.00,142.00,VWS V14.01,2013-06-02 12:46:00,
2013-06-02 07:51:00,61.0,57.1,29.87,West,260,7.0,9.0,87,0.00,,OVC019,0.00,163.00,VWS V14.01,2013-06-02 12:51:00,
2013-06-02 07:56:00,61.2,57.0,29.88,WSW,254,3.0,8.0,86,0.00,,OVC019,0.00,121.00,VWS V14.01,2013-06-02 12:56:00,
2013-06-02 08:01:00,61.2,56.7,29.88,NNE,18,1.0,4.0,85,0.00,,OVC019,0.00,104.00,VWS V14.01,2013-06-02 13:01:00,
2013-06-02 08:07:00,61.3,56.8,29.88,NNE,21,1.0,6.0,85,0.00,,OVC019,0.00,81.00,VWS V14.01,2013-06-02 13:07:00,
2013-06-02 08:12:00,61.3,57.1,29.88,WSW,248,3.0,8.0,86,0.00,,OVC019,0.00,54.00,VWS V14.01,2013-06-02 13:12:00,
2013-06-02 08:17:00,61.2,57.0,29.89,SW,236,3.0,11.0,86,0.00,,OVC019,0.00,77.00,VWS V14.01,2013-06-02 13:17:00,
2013-06-02 08:22:00,61.2,57.0,29.89,NNW,331,2.0,4.0,86,0.00,,OVC019,0.00,107.00,VWS V14.01,2013-06-02 13:22:00,
2013-06-02 08:27:00,61.2,57.0,29.89,NW,319,1.0,4.0,86,0.00,,OVC019,0.00,105.00,VWS V14.01,2013-06-02 13:27:00,
2013-06-02 08:32:00,61.0,56.5,29.89,West,277,0.0,5.0,85,0.00,,OVC019,0.00,88.00,VWS V14.01,2013-06-02 13:32:00,
2013-06-02 08:38:00,61.2,57.0,29.89,NW,304,6.0,6.0,86,0.00,,OVC019,0.00,113.00,VWS V14.01,2013-06-02 13:38:00,
2013-06-02 08:43:00,61.2,56.7,29.89,West,281,3.0,6.0,85,0.00,,OVC019,0.00,125.00,VWS V14.01,2013-06-02 13:43:00,
2013-06-02 08:48:00,61.2,56.3,29.90,West,281,4.0,7.0,84,0.00,,OVC019,0.00,109.00,VWS V14.01,2013-06-02 13:48:00,
2013-06-02 08:53:00,61.0,56.1,29.90,WSW,254,3.0,10.0,84,0.00,,OVC019,0.00,109.00,VWS V14.01,2013-06-02 13:53:00,
2013-06-02 08:58:00,61.0,56.1,29.90,NW,321,0.0,3.0,84,0.00,,OVC019,0.00,142.00,VWS V14.01,2013-06-02 13:58:00,
2013-06-02 09:03:00,61.2,56.0,29.90,WSW,255,8.0,11.0,83,0.00,,OVC019,0.00,142.00,VWS V14.01,2013-06-02 14:03:00,
2013-06-02 09:09:00,61.0,55.5,29.91,NNW,333,8.0,8.0,82,0.00,,OVC019,0.00,148.00,VWS V14.01,2013-06-02 14:09:00,
2013-06-02 09:14:00,61.0,55.5,29.91,West,277,5.0,7.0,82,0.00,,OVC019,0.00,167.00,VWS V14.01,2013-06-02 14:14:00,
2013-06-02 09:19:00,61.2,55.3,29.91,NNW,336,5.0,14.0,81,0.00,,OVC019,0.00,211.00,VWS V14.01,2013-06-02 14:19:00,
2013-06-02 09:25:00,61.2,55.0,29.91,WNW,302,1.0,3.0,80,0.00,,OVC019,0.00,149.00,VWS V14.01,2013-06-02 14:25:00,
2013-06-02 09:30:00,61.2,54.6,29.91,WNW,283,1.0,5.0,79,0.00,,OVC019,0.00,156.00,VWS V14.01,2013-06-02 14:30:00,
2013-06-02 09:35:00,61.2,54.6,29.91,West,268,7.0,12.0,79,0.00,,OVC019,0.00,281.00,VWS V14.01,2013-06-02 14:35:00,
2013-06-02 09:40:00,61.3,55.1,29.91,NNW,338,3.0,6.0,80,0.00,,OVC019,0.00,301.00,VWS V14.01,2013-06-02 14:40:00,
2013-06-02 09:45:00,61.5,54.9,29.91,WNW,303,1.0,6.0,79,0.00,,OVC019,0.00,308.00,VWS V14.01,2013-06-02 14:45:00,
2013-06-02 09:51:00,61.8,54.9,29.91,WNW,283,2.0,7.0,78,0.00,,OVC019,0.00,279.00,VWS V14.01,2013-06-02 14:51:00,
2013-06-02 09:56:00,61.8,54.9,29.92,West,280,2.0,7.0,78,0.00,,OVC019,0.00,248.00,VWS V14.01,2013-06-02 14:56:00,
2013-06-02 10:01:00,61.8,54.9,29.92,West,280,0.0,6.0,78,0.00,,OVC019,0.00,218.00,VWS V14.01,2013-06-02 15:01:00,
2013-06-02 10:06:00,62.0,55.4,29.92,WNW,293,3.0,3.0,79,0.00,,OVC019,0.00,204.00,VWS V14.01,2013-06-02 15:06:00,
2013-06-02 10:11:00,62.1,55.2,29.92,WNW,301,0.0,7.0,78,0.00,,OVC019,0.00,274.00,VWS V14.01,2013-06-02 15:11:00,
2013-06-02 10:16:00,62.1,55.2,29.92,WNW,302,5.0,6.0,78,0.00,,OVC019,0.00,404.00,VWS V14.01,2013-06-02 15:16:00,
2013-06-02 10:21:00,62.3,55.4,29.93,West,280,4.0,9.0,78,0.00,,OVC019,0.00,334.00,VWS V14.01,2013-06-02 15:21:00,
2013-06-02 10:26:00,62.4,55.5,29.93,WNW,293,6.0,9.0,78,0.00,,OVC019,0.00,380.00,VWS V14.01,2013-06-02 15:26:00,
2013-06-02 10:31:00,62.6,55.7,29.93,WNW,284,0.0,4.0,78,0.00,,OVC019,0.00,283.00,VWS V14.01,2013-06-02 15:31:00,
2013-06-02 10:36:00,62.7,55.8,29.93,NNW,344,0.0,2.0,78,0.00,,OVC019,0.00,257.00,VWS V14.01,2013-06-02 15:36:00,
2013-06-02 10:41:00,62.6,55.3,29.93,WNW,286,9.0,9.0,77,0.00,,OVC019,0.00,160.00,VWS V14.01,2013-06-02 15:41:00,
2013-06-02 10:46:00,62.1,55.2,29.94,NW,308,3.0,6.0,78,0.00,,OVC019,0.00,169.00,VWS V14.01,2013-06-02 15:46:00,
2013-06-02 10:51:00,62.0,55.1,29.94,NNE,15,2.0,5.0,78,0.00,,OVC019,0.00,105.00,VWS V14.01,2013-06-02 15:51:00,
2013-06-02 10:56:00,61.8,55.6,29.94,West,271,2.0,4.0,80,0.00,,OVC019,0.00,91.00,VWS V14.01,2013-06-02 15:56:00,
2013-06-02 11:01:00,61.5,55.3,29.94,West,273,3.0,6.0,80,0.00,,OVC016,0.00,97.00,VWS V14.01,2013-06-02 16:01:00,
2013-06-02 11:07:00,61.2,55.0,29.94,NW,325,0.0,3.0,80,0.00,,OVC016,0.00,123.00,VWS V14.01,2013-06-02 16:07:00,
2013-06-02 11:12:00,61.0,54.8,29.94,NW,312,4.0,9.0,80,0.00,,OVC016,0.00,151.00,VWS V14.01,2013-06-02 16:12:00,
2013-06-02 11:17:00,60.9,55.0,29.94,NNW,342,1.0,6.0,81,0.00,,OVC016,0.00,176.00,VWS V14.01,2013-06-02 16:17:00,
2013-06-02 11:22:00,60.9,55.0,29.94,West,279,0.0,3.0,81,0.00,,OVC016,0.00,204.00,VWS V14.01,2013-06-02 16:22:00,
2013-06-02 11:27:00,60.9,55.0,29.94,NW,310,2.0,4.0,81,0.00,,OVC016,0.00,200.00,VWS V14.01,2013-06-02 16:27:00,
2013-06-02 11:32:00,61.0,55.1,29.94,NNW,346,0.0,3.0,81,0.00,,OVC016,0.00,146.00,VWS V14.01,2013-06-02 16:32:00,
2013-06-02 11:37:00,61.0,55.1,29.94,NW,315,1.0,3.0,81,0.00,,OVC016,0.00,142.00,VWS V14.01,2013-06-02 16:37:00,
2013-06-02 11:43:00,61.0,55.1,29.94,West,276,4.0,8.0,81,0.00,,OVC016,0.00,165.00,VWS V14.01,2013-06-02 16:43:00,
2013-06-02 11:48:00,60.7,54.8,29.94,WSW,257,3.0,8.0,81,0.00,,OVC016,0.00,146.00,VWS V14.01,2013-06-02 16:48:00,
2013-06-02 11:53:00,60.4,54.9,29.95,North,360,1.0,5.0,82,0.00,,OVC016,0.00,156.00,VWS V14.01,2013-06-02 16:53:00,
2013-06-02 11:58:00,60.2,55.0,29.95,NW,304,6.0,10.0,83,0.00,,OVC016,0.00,190.00,VWS V14.01,2013-06-02 16:58:00,
2013-06-02 12:03:00,60.2,55.3,29.95,North,360,0.0,8.0,84,0.00,,OVC031,0.00,125.00,VWS V14.01,2013-06-02 17:03:00,
2013-06-02 12:08:00,59.9,55.1,29.95,North,351,3.0,7.0,84,0.00,,OVC031,0.00,171.00,VWS V14.01,2013-06-02 17:08:00,
2013-06-02 12:13:00,59.8,55.0,29.96,NNW,343,3.0,4.0,84,0.00,,OVC031,0.00,172.00,VWS V14.01,2013-06-02 17:13:00,
2013-06-02 12:18:00,59.6,55.4,29.96,NNW,336,2.0,10.0,86,0.00,,OVC031,0.00,146.00,VWS V14.01,2013-06-02 17:18:00,
2013-06-02 12:23:00,59.3,55.4,29.96,NW,323,4.0,6.0,87,0.00,,OVC031,0.00,155.00,VWS V14.01,2013-06-02 17:23:00,
2013-06-02 12:28:00,59.2,55.7,29.96,West,273,4.0,6.0,88,0.00,,OVC031,0.00,116.00,VWS V14.01,2013-06-02 17:28:00,
2013-06-02 12:33:00,58.9,55.7,29.96,West,271,0.0,1.0,89,0.00,,OVC031,0.00,102.00,VWS V14.01,2013-06-02 17:33:00,
2013-06-02 12:39:00,58.9,56.0,29.97,WNW,288,1.0,2.0,90,0.01,,OVC031,0.01,104.00,VWS V14.01,2013-06-02 17:39:00,
2013-06-02 12:44:00,58.9,56.0,29.97,NW,326,0.0,2.0,90,0.01,,OVC031,0.01,109.00,VWS V14.01,2013-06-02 17:44:00,
2013-06-02 12:50:00,58.6,55.7,29.97,WNW,290,3.0,5.0,90,0.01,,OVC031,0.01,151.00,VWS V14.01,2013-06-02 17:50:00,
2013-06-02 12:55:00,58.4,55.8,29.97,West,259,2.0,5.0,91,0.01,,OVC031,0.01,174.00,VWS V14.01,2013-06-02 17:55:00,
2013-06-02 13:00:00,58.4,55.8,29.98,NW,325,0.0,1.0,91,0.01,,OVC031,0.01,142.00,VWS V14.01,2013-06-02 18:00:00,
2013-06-02 13:05:00,58.4,55.8,29.98,NNW,333,4.0,7.0,91,0.01,,OVC031,0.01,91.00,VWS V14.01,2013-06-02 18:05:00,
2013-06-02 13:10:00,58.1,55.5,29.98,WNW,288,3.0,7.0,91,0.01,,OVC031,0.01,146.00,VWS V14.01,2013-06-02 18:10:00,
2013-06-02 13:15:00,58.1,55.8,29.98,NW,309,2.0,5.0,92,0.01,,OVC031,0.01,197.00,VWS V14.01,2013-06-02 18:15:00,
2013-06-02 13:20:00,58.3,56.0,29.98,NNW,348,2.0,7.0,92,0.01,,OVC031,0.01,218.00,VWS V14.01,2013-06-02 18:20:00,
2013-06-02 13:25:00,58.4,56.1,29.98,WNW,288,3.0,6.0,92,0.01,,OVC031,0.01,276.00,VWS V14.01,2013-06-02 18:25:00,
2013-06-02 13:31:00,58.6,56.0,29.98,WNW,294,2.0,5.0,91,0.01,,OVC031,0.01,287.00,VWS V14.01,2013-06-02 18:31:00,
2013-06-02 13:36:00,59.0,56.4,29.98,WNW,294,0.0,2.0,91,0.01,,OVC031,0.01,301.00,VWS V14.01,2013-06-02 18:36:00,
2013-06-02 13:42:00,59.5,56.6,29.98,North,360,1.0,2.0,90,0.00,,OVC031,0.01,318.00,VWS V14.01,2013-06-02 18:42:00,
2013-06-02 13:47:00,59.8,56.6,29.98,North,360,0.0,2.0,89,0.00,,OVC031,0.01,306.00,VWS V14.01,2013-06-02 18:47:00,
2013-06-02 13:52:00,60.1,56.5,29.98,NNW,338,1.0,3.0,88,0.00,,OVC031,0.01,295.00,VWS V14.01,2013-06-02 18:52:00,
2013-06-02 13:57:00,60.1,56.2,29.98,NW,313,3.0,8.0,87,0.00,,OVC031,0.01,146.00,VWS V14.01,2013-06-02 18:57:00,
2013-06-02 14:02:00,59.9,56.3,29.98,North,351,4.0,4.0,88,0.00,,-RA,0.01,169.00,VWS V14.01,2013-06-02 19:02:00,
2013-06-02 14:07:00,59.5,56.0,29.98,North,360,6.0,6.0,88,0.00,,-RA,0.01,244.00,VWS V14.01,2013-06-02 19:07:00,
2013-06-02 14:12:00,59.3,56.1,29.98,North,351,2.0,3.0,89,0.00,,-RA,0.01,211.00,VWS V14.01,2013-06-02 19:12:00,
2013-06-02 14:18:00,59.5,56.3,29.99,NW,320,1.0,6.0,89,0.00,,-RA,0.01,278.00,VWS V14.01,2013-06-02 19:18:00,
2013-06-02 14:23:00,59.5,56.3,29.98,NW,315,1.0,5.0,89,0.00,,-RA,0.01,304.00,VWS V14.01,2013-06-02 19:23:00,
2013-06-02 14:28:00,59.6,56.4,29.99,NW,315,0.0,4.0,89,0.00,,-RA,0.01,425.00,VWS V14.01,2013-06-02 19:28:00,
2013-06-02 14:33:00,59.8,56.2,29.99,NW,315,0.0,2.0,88,0.00,,-RA,0.01,288.00,VWS V14.01,2013-06-02 19:33:00,
2013-06-02 14:38:00,60.1,56.2,29.99,NE,43,2.0,7.0,87,0.00,,-RA,0.01,216.00,VWS V14.01,2013-06-02 19:38:00,
2013-06-02 14:43:00,59.8,55.9,29.99,West,273,9.0,9.0,87,0.00,,-RA,0.01,207.00,VWS V14.01,2013-06-02 19:43:00,
2013-06-02 14:48:00,59.5,56.0,29.99,NW,322,0.0,7.0,88,0.00,,-RA,0.01,352.00,VWS V14.01,2013-06-02 19:48:00,
2013-06-02 14:54:00,59.3,55.8,29.99,NW,311,2.0,4.0,88,0.00,,-RA,0.01,420.00,VWS V14.01,2013-06-02 19:54:00,
2013-06-02 14:59:00,59.6,56.0,29.99,NW,306,3.0,5.0,88,0.00,,-RA,0.01,387.00,VWS V14.01,2013-06-02 19:59:00,
2013-06-02 15:04:00,59.8,55.6,29.99,NNE,22,4.0,8.0,86,0.00,,-RA,0.01,385.00,VWS V14.01,2013-06-02 20:04:00,
2013-06-02 15:09:00,60.1,55.9,29.99,NW,315,0.0,3.0,86,0.00,,-RA,0.01,399.00,VWS V14.01,2013-06-02 20:09:00,
2013-06-02 15:14:00,60.4,55.9,29.99,North,360,2.0,6.0,85,0.00,,-RA,0.01,371.00,VWS V14.01,2013-06-02 20:14:00,
2013-06-02 15:19:00,60.4,55.5,30.00,NNW,340,2.0,6.0,84,0.00,,-RA,0.01,262.00,VWS V14.01,2013-06-02 20:19:00,
2013-06-02 15:25:00,60.4,54.9,30.00,WNW,296,2.0,5.0,82,0.00,,-RA,0.01,120.00,VWS V14.01,2013-06-02 20:25:00,
2013-06-02 15:31:00,59.9,54.4,30.00,WSW,257,1.0,3.0,82,0.00,,-RA,0.01,127.00,VWS V14.01,2013-06-02 20:31:00,
2013-06-02 15:36:00,59.5,54.0,30.00,NW,316,5.0,5.0,82,0.00,,-RA,0.01,114.00,VWS V14.01,2013-06-02 20:36:00,
2013-06-02 15:42:00,59.2,54.4,30.00,NW,311,2.0,3.0,84,0.00,,-RA,0.01,102.00,VWS V14.01,2013-06-02 20:42:00,
2013-06-02 15:47:00,59.0,54.2,30.00,NW,310,1.0,6.0,84,0.00,,-RA,0.01,100.00,VWS V14.01,2013-06-02 20:47:00,
2013-06-02 15:52:00,59.0,54.2,30.00,NW,310,3.0,3.0,84,0.00,,-RA,0.01,111.00,VWS V14.01,2013-06-02 20:52:00,
2013-06-02 15:58:00,58.9,53.8,30.00,NNW,345,2.0,5.0,83,0.00,,-RA,0.01,113.00,VWS V14.01,2013-06-02 20:58:00,
2013-06-02 16:03:00,58.9,53.4,30.00,North,360,4.0,6.0,82,0.00,,,0.01,98.00,VWS V14.01,2013-06-02 21:03:00,
2013-06-02 16:08:00,59.0,53.8,30.00,West,263,2.0,7.0,83,0.00,,,0.01,109.00,VWS V14.01,2013-06-02 21:08:00,
2013-06-02 16:14:00,59.2,54.0,30.00,NE,40,1.0,2.0,83,0.00,,,0.01,186.00,VWS V14.01,2013-06-02 21:14:00,
2013-06-02 16:19:00,59.3,53.8,30.00,West,263,3.0,6.0,82,0.00,,,0.01,204.00,VWS V14.01,2013-06-02 21:19:00,
2013-06-02 16:24:00,59.3,53.5,30.00,SW,229,4.0,7.0,81,0.00,,,0.01,207.00,VWS V14.01,2013-06-02 21:24:00,
2013-06-02 16:29:00,59.6,53.4,30.00,West,276,4.0,4.0,80,0.00,,,0.01,211.00,VWS V14.01,2013-06-02 21:29:00,
2013-06-02 16:34:00,59.8,53.6,30.00,West,273,4.0,6.0,80,0.00,,,0.01,197.00,VWS V14.01,2013-06-02 21:34:00,
2013-06-02 16:39:00,59.9,53.4,30.00,West,272,1.0,4.0,79,0.00,,,0.01,130.00,VWS V14.01,2013-06-02 21:39:00,
2013-06-02 16:45:00,59.9,53.4,30.00,NNW,327,2.0,6.0,79,0.00,,,0.01,137.00,VWS V14.01,2013-06-02 21:45:00,
2013-06-02 16:50:00,59.9,53.4,30.00,WNW,285,2.0,3.0,79,0.00,,,0.01,151.00,VWS V14.01,2013-06-02 21:50:00,
2013-06-02 16:55:00,60.2,53.7,30.00,WNW,294,0.0,3.0,79,0.00,,,0.01,165.00,VWS V14.01,2013-06-02 21:55:00,
2013-06-02 17:00:00,60.2,53.3,30.00,WNW,288,3.0,4.0,78,0.00,,,0.01,155.00,VWS V14.01,2013-06-02 22:00:00,
2013-06-02 17:05:00,60.4,53.5,30.00,North,360,4.0,4.0,78,0.00,,,0.01,134.00,VWS V14.01,2013-06-02 22:05:00,
2013-06-02 17:10:00,60.1,52.9,30.00,NNE,33,7.0,9.0,77,0.00,,,0.01,95.00,VWS V14.01,2013-06-02 22:10:00,
2013-06-02 17:15:00,59.6,52.7,30.00,NNW,345,5.0,5.0,78,0.00,,,0.01,183.00,VWS V14.01,2013-06-02 22:15:00,
2013-06-02 17:20:00,59.5,52.6,30.00,NNE,18,3.0,7.0,78,0.00,,,0.01,171.00,VWS V14.01,2013-06-02 22:20:00,
2013-06-02 17:26:00,59.5,52.3,30.00,WNW,297,2.0,8.0,77,0.00,,,0.01,155.00,VWS V14.01,2013-06-02 22:26:00,
2013-06-02 17:31:00,59.6,52.0,30.00,North,360,6.0,6.0,76,0.00,,,0.01,118.00,VWS V14.01,2013-06-02 22:31:00,
2013-06-02 17:36:00,59.6,52.0,30.00,NE,35,4.0,6.0,76,0.00,,,0.01,86.00,VWS V14.01,2013-06-02 22:36:00,
2013-06-02 17:41:00,59.6,52.4,30.00,NNW,338,4.0,7.0,77,0.00,,,0.01,56.00,VWS V14.01,2013-06-02 22:41:00,
2013-06-02 17:46:00,59.5,52.6,30.00,North,360,1.0,4.0,78,0.00,,,0.01,46.00,VWS V14.01,2013-06-02 22:46:00,
2013-06-02 17:51:00,59.3,52.8,30.00,North,10,8.0,8.0,79,0.00,,,0.01,54.00,VWS V14.01,2013-06-02 22:51:00,
2013-06-02 17:57:00,59.2,52.3,30.00,NNW,345,3.0,4.0,78,0.00,,,0.01,76.00,VWS V14.01,2013-06-02 22:57:00,
2013-06-02 18:02:00,59.0,52.2,30.00,NNW,331,2.0,5.0,78,0.00,,OVC030,0.01,74.00,VWS V14.01,2013-06-02 23:02:00,
2013-06-02 18:08:00,59.0,52.2,30.00,NNW,348,2.0,5.0,78,0.00,,OVC030,0.01,84.00,VWS V14.01,2013-06-02 23:08:00,
2013-06-02 18:13:00,59.0,52.2,30.00,North,360,4.0,4.0,78,0.00,,OVC030,0.01,69.00,VWS V14.01,2013-06-02 23:13:00,
2013-06-02 18:18:00,59.0,51.8,30.00,NNW,346,3.0,5.0,77,0.00,,OVC030,0.01,46.00,VWS V14.01,2013-06-02 23:18:00,
2013-06-02 18:23:00,58.9,51.7,30.00,North,360,5.0,5.0,77,0.00,,OVC030,0.01,42.00,VWS V14.01,2013-06-02 23:23:00,
2013-06-02 18:29:00,58.7,51.5,30.00,NW,318,1.0,8.0,77,0.00,,OVC030,0.01,32.00,VWS V14.01,2013-06-02 23:29:00,
2013-06-02 18:34:00,58.6,51.1,30.01,NNE,21,3.0,7.0,76,0.00,,OVC030,0.01,32.00,VWS V14.01,2013-06-02 23:34:00,
2013-06-02 18:39:00,58.4,50.9,30.00,North,9,2.0,5.0,76,0.00,,OVC030,0.01,39.00,VWS V14.01,2013-06-02 23:39:00,
2013-06-02 18:44:00,58.4,50.9,30.00,NW,323,3.0,3.0,76,0.00,,OVC030,0.01,40.00,VWS V14.01,2013-06-02 23:44:00,
2013-06-02 18:49:00,58.4,51.2,30.01,North,9,7.0,9.0,77,0.00,,OVC030,0.01,30.00,VWS V14.01,2013-06-02 23:49:00,
2013-06-02 18:55:00,58.3,51.1,30.01,North,360,0.0,4.0,77,0.00,,OVC030,0.01,32.00,VWS V14.01,2013-06-02 23:55:00,
2013-06-02 19:00:00,58.1,50.9,30.01,North,360,3.0,4.0,77,0.00,,OVC027,0.01,30.00,VWS V14.01,2013-06-03 00:00:00,
2013-06-02 19:05:00,58.1,51.3,30.01,NNW,347,6.0,6.0,78,0.00,,OVC027,0.01,33.00,VWS V14.01,2013-06-03 00:05:00,
2013-06-02 19:11:00,58.0,50.8,30.01,NE,34,2.0,5.0,77,0.00,,OVC027,0.01,33.00,VWS V14.01,2013-06-03 00:11:00,
2013-06-02 19:16:00,57.8,51.0,30.01,NNE,13,1.0,8.0,78,0.00,,OVC027,0.01,30.00,VWS V14.01,2013-06-03 00:16:00,
2013-06-02 19:21:00,57.8,51.0,30.01,NNE,13,2.0,4.0,78,0.00,,OVC027,0.01,26.00,VWS V14.01,2013-06-03 00:21:00,
2013-06-02 19:26:00,58.0,51.2,30.01,NNE,15,4.0,4.0,78,0.00,,OVC027,0.01,23.00,VWS V14.01,2013-06-03 00:26:00,
2013-06-02 19:31:00,57.8,51.0,30.01,NNE,32,4.0,7.0,78,0.00,,OVC027,0.01,16.00,VWS V14.01,2013-06-03 00:31:00,
2013-06-02 19:36:00,57.6,50.8,30.01,NW,322,3.0,6.0,78,0.00,,OVC027,0.01,12.00,VWS V14.01,2013-06-03 00:36:00,
2013-06-02 19:41:00,57.5,50.7,30.01,North,11,5.0,5.0,78,0.00,,OVC027,0.01,11.00,VWS V14.01,2013-06-03 00:41:00,
2013-06-02 19:46:00,57.3,50.5,30.02,NNE,17,4.0,5.0,78,0.00,,OVC027,0.01,7.00,VWS V14.01,2013-06-03 00:46:00,
2013-06-02 19:51:00,57.2,50.8,30.01,North,360,5.0,7.0,79,0.00,,OVC027,0.01,5.00,VWS V14.01,2013-06-03 00:51:00,
2013-06-02 19:56:00,57.2,50.8,30.01,North,351,8.0,8.0,79,0.00,,OVC027,0.01,5.00,VWS V14.01,2013-06-03 00:56:00,
2013-06-02 20:01:00,57.2,50.8,30.01,NNE,13,3.0,5.0,79,0.00,,OVC021,0.01,0.00,VWS V14.01,2013-06-03 01:01:00,
2013-06-02 20:06:00,57.2,50.8,30.01,NNE,13,1.0,4.0,79,0.00,,OVC021,0.01,0.00,VWS V14.01,2013-06-03 01:06:00,
2013-06-02 20:11:00,57.0,50.6,30.01,NNE,12,8.0,8.0,79,0.00,,OVC021,0.01,0.00,VWS V14.01,2013-06-03 01:11:00,
2013-06-02 20:16:00,57.0,50.6,30.01,NNE,17,0.0,8.0,79,0.00,,OVC021,0.01,0.00,VWS V14.01,2013-06-03 01:16:00,
2013-06-02 20:21:00,56.9,50.1,30.02,NNE,15,6.0,7.0,78,0.00,,OVC021,0.01,0.00,VWS V14.01,2013-06-03 01:21:00,
2013-06-02 20:26:00,56.9,50.1,30.02,NNE,32,7.0,10.0,78,0.00,,OVC021,0.01,0.00,VWS V14.01,2013-06-03 01:26:00,
2013-06-02 20:31:00,56.9,50.5,30.02,NNE,13,1.0,5.0,79,0.00,,OVC021,0.01,0.00,VWS V14.01,2013-06-03 01:31:00,
2013-06-02 20:37:00,56.7,50.3,30.02,NNE,30,5.0,5.0,79,0.00,,OVC021,0.01,0.00,VWS V14.01,2013-06-03 01:37:00,
2013-06-02 20:42:00,56.7,50.6,30.02,North,360,4.0,8.0,80,0.00,,OVC021,0.01,0.00,VWS V14.01,2013-06-03 01:42:00,
2013-06-02 20:47:00,56.7,50.6,30.02,NW,321,7.0,8.0,80,0.00,,OVC021,0.01,0.00,VWS V14.01,2013-06-03 01:47:00,
2013-06-02 20:52:00,56.6,50.8,30.03,NNW,342,3.0,3.0,81,0.00,,OVC021,0.01,0.00,VWS V14.01,2013-06-03 01:52:00,
2013-06-02 20:58:00,56.5,50.4,30.03,ENE,57,4.0,7.0,80,0.00,,OVC021,0.01,0.00,VWS V14.01,2013-06-03 01:58:00,
2013-06-02 21:03:00,56.5,50.4,30.03,NNW,341,3.0,5.0,80,0.00,,BKN,0.01,0.00,VWS V14.01,2013-06-03 02:03:00,
2013-06-02 21:08:00,56.3,49.9,30.03,NNE,24,3.0,4.0,79,0.00,,BKN,0.01,0.00,VWS V14.01,2013-06-03 02:08:00,
2013-06-02 21:13:00,56.3,49.9,30.03,NNE,23,0.0,1.0,79,0.00,,BKN,0.01,0.00,VWS V14.01,2013-06-03 02:13:00,
2013-06-02 21:18:00,56.3,50.2,30.04,NNE,23,2.0,2.0,80,0.00,,BKN,0.01,0.00,VWS V14.01,2013-06-03 02:18:00,
2013-06-02 21:23:00,56.3,50.2,30.04,NNE,23,2.0,2.0,80,0.00,,BKN,0.01,0.00,VWS V14.01,2013-06-03 02:23:00,
2013-06-02 21:28:00,56.5,50.4,30.04,NNE,23,2.0,4.0,80,0.00,,BKN,0.01,0.00,VWS V14.01,2013-06-03 02:28:00,
2013-06-02 21:33:00,56.5,51.1,30.05,NNE,23,0.0,0.0,82,0.00,,BKN,0.01,0.00,VWS V14.01,2013-06-03 02:33:00,
2013-06-02 21:38:00,56.5,51.4,30.05,NNE,23,0.0,0.0,83,0.00,,BKN,0.01,0.00,VWS V14.01,2013-06-03 02:38:00,
2013-06-02 21:43:00,56.5,51.7,30.05,NNE,23,0.0,0.0,84,0.00,,BKN,0.01,0.00,VWS V14.01,2013-06-03 02:43:00,
2013-06-02 21:48:00,56.3,51.9,30.05,NNE,23,2.0,5.0,85,0.00,,BKN,0.01,0.00,VWS V14.01,2013-06-03 02:48:00,
2013-06-02 21:53:00,56.3,52.2,30.06,NNE,23,0.0,1.0,86,0.00,,BKN,0.01,0.00,VWS V14.01,2013-06-03 02:53:00,
2013-06-02 21:58:00,56.3,52.2,30.06,NNE,23,3.0,5.0,86,0.00,,BKN,0.01,0.00,VWS V14.01,2013-06-03 02:58:00,
2013-06-02 22:03:00,56.3,52.5,30.06,NNE,22,7.0,7.0,87,0.00,,BKN,0.01,0.00,VWS V14.01,2013-06-03 03:03:00,
2013-06-02 22:08:00,56.2,52.4,30.06,NNE,22,5.0,6.0,87,0.00,,BKN,0.01,0.00,VWS V14.01,2013-06-03 03:08:00,
2013-06-02 22:13:00,56.0,52.5,30.06,NNE,22,4.0,4.0,88,0.00,,BKN,0.01,0.00,VWS V14.01,2013-06-03 03:13:00,
2013-06-02 22:18:00,56.0,52.5,30.06,NNE,22,0.0,2.0,88,0.00,,BKN,0.01,0.00,VWS V14.01,2013-06-03 03:18:00,
2013-06-02 22:23:00,55.9,52.4,30.06,NNE,17,2.0,5.0,88,0.00,,BKN,0.01,0.00,VWS V14.01,2013-06-03 03:23:00,
2013-06-02 22:28:00,55.7,52.2,30.06,NNE,17,4.0,5.0,88,0.00,,BKN,0.01,0.00,VWS V14.01,2013-06-03 03:28:00,
2013-06-02 22:33:00,55.7,52.2,30.06,NNE,24,6.0,7.0,88,0.00,,BKN,0.01,0.00,VWS V14.01,2013-06-03 03:33:00,
2013-06-02 22:38:00,55.4,51.9,30.06,NE,42,5.0,7.0,88,0.00,,BKN,0.01,0.00,VWS V14.01,2013-06-03 03:38:00,
2013-06-02 22:43:00,55.1,51.6,30.06,NE,51,3.0,5.0,88,0.00,,BKN,0.01,0.00,VWS V14.01,2013-06-03 03:43:00,
2013-06-02 22:48:00,55.0,51.8,30.06,NE,51,2.0,5.0,89,0.00,,BKN,0.01,0.00,VWS V14.01,2013-06-03 03:48:00,
2013-06-02 22:53:00,54.8,51.6,30.07,NE,45,2.0,5.0,89,0.00,,BKN,0.01,0.00,VWS V14.01,2013-06-03 03:53:00,
2013-06-02 22:58:00,54.8,51.6,30.07,NE,45,2.0,4.0,89,0.00,,BKN,0.01,0.00,VWS V14.01,2013-06-03 03:58:00,
2013-06-02 23:01:00,54.8,51.6,30.07,NE,45,3.0,3.0,89,0.00,,OVC035,0.01,0.00,VWS V14.01,2013-06-03 04:01:00,
2013-06-02 23:02:00,54.8,51.6,30.07,NE,46,2.0,3.0,89,0.00,,OVC035,0.01,0.00,VWS V14.01,2013-06-03 04:02:00,
2013-06-02 23:04:00,54.7,51.5,30.06,NE,46,0.0,4.0,89,0.00,,OVC035,0.01,0.00,VWS V14.01,2013-06-03 04:04:00,
2013-06-02 23:09:00,54.5,51.3,30.07,NE,53,4.0,6.0,89,0.00,,OVC035,0.01,0.00,VWS V14.01,2013-06-03 04:09:00,
2013-06-02 23:12:00,54.4,51.2,30.07,ENE,69,1.0,3.0,89,0.00,,OVC035,0.01,0.00,VWS V14.01,2013-06-03 04:12:00,
2013-06-02 23:18:00,54.2,51.0,30.07,NE,55,4.0,7.0,89,0.00,,OVC035,0.01,0.00,VWS V14.01,2013-06-03 04:18:00,
2013-06-02 23:19:00,54.2,51.0,30.07,NE,55,2.0,4.0,89,0.00,,OVC035,0.01,0.00,VWS V14.01,2013-06-03 04:19:00,
2013-06-02 23:24:00,54.1,50.9,30.07,ENE,58,2.0,3.0,89,0.00,,OVC035,0.01,0.00,VWS V14.01,2013-06-03 04:24:00,
2013-06-02 23:29:00,54.1,50.9,30.07,NE,56,2.0,5.0,89,0.00,,OVC035,0.01,0.00,VWS V14.01,2013-06-03 04:29:00,
2013-06-02 23:34:00,53.9,51.0,30.07,ENE,57,1.0,2.0,90,0.00,,OVC035,0.01,0.00,VWS V14.01,2013-06-03 04:34:00,
2013-06-02 23:39:00,53.9,50.7,30.07,ENE,59,2.0,4.0,89,0.00,,OVC035,0.01,0.00,VWS V14.01,2013-06-03 04:39:00,
2013-06-02 23:44:00,53.8,50.6,30.08,ENE,58,0.0,3.0,89,0.00,,OVC035,0.01,0.00,VWS V14.01,2013-06-03 04:44:00,
2013-06-02 23:49:00,53.8,50.6,30.08,ENE,59,3.0,4.0,89,0.00,,OVC035,0.01,0.00,VWS V14.01,2013-06-03 04:49:00,
2013-06-02 23:55:00,53.8,50.6,30.08,ENE,58,2.0,3.0,89,0.00,,OVC035,0.01,0.00,VWS V14.01,2013-06-03 04:55:00,